[[{"header":{"parameterUnit":"m.s-1","parameterCategory":2,"la1":30.2991,"la2":30.254,"lo1":-89.0895,"lo2":-89.0444,"dy":0.0017,"dx":0.0017,"nx":28,"ny":28,"refTime":"2024-06-21T09:00:00:Z","depth":"0","parameterNumber":2,"parameterNumberName":"U-component_of_CURRENTS"},"data":[0,0,0,0,0,0,0,0,0,0,0,0,0,0,0,0,0,0,0,0,0,0,0,0,0,0,0,0,0,0,0,0,0,0,0,0,0,0,0,0,0,0,0,0,0,0,0,0,0,0,0,0,0,0,0,0,0,0,0.3492,0.3493,0,0.3558,0.3558,0.3559,0.356,0.3559,0.3559,0.3559,0.3541,0.3541,0.3541,0,0,0,0,0,0,0,0,0,0,0,0,0,0.3387,0.3388,0.3492,0.3493,0.3494,0.3558,0.3559,0.3559,0.356,0.3559,0.3559,0.3558,0.3541,0.3541,0.3541,0,0,0,0,0,0,0,0,0,0,0,0,0,0.3437,0.3389,0.3492,0.3505,0.3507,0.3558,0.3559,0.3559,0.356,0.3559,0.3559,0.3558,0.3541,0.3541,0.3541,0.3555,0,0,0.3541,0.3541,0,0,0,0,0,0,0,0,0.3434,0.344,0.3502,0.3505,0.3507,0.3553,0.3515,0.3555,0.356,0.3536,0.3559,0.3558,0.354,0.354,0.355,0.3555,0.3554,0.3541,0.3541,0.3541,0.3541,0,0,0,0,0,0,0,0.3431,0.3438,0.3514,0.3504,0.3507,0.3515,0.3521,0.3523,0.3537,0.3538,0.3539,0.3553,0.354,0.355,0.355,0.3554,0.3541,0.3541,0.3541,0.3541,0.3627,0.3629,0,0,0,0,0,0,0.343,0.3435,0.3512,0.3517,0.3472,0.3518,0.3524,0.3536,0.3539,0.3541,0.3553,0.3553,0.3551,0.355,0.3549,0.3626,0.3541,0.3541,0.3541,0.3625,0.3628,0.363,0,0,0,0,0,0,0.3428,0.3436,0.351,0.348,0.349,0.3521,0.3534,0.3538,0.3558,0.3552,0.3551,0.3571,0.355,0.3549,0.3571,0.3622,0.3541,0.3541,0.3622,0.3626,0.3629,0.3741,0,0,0,0,0,0,0.3424,0.3435,0.3433,0.348,0.3492,0.356,0.3535,0.354,0.3568,0.3568,0.3566,0.3564,0.3549,0.3571,0.3571,0.3621,0.3541,0.3619,0.3624,0.3628,0.3734,0.3748,0.3759,0,0,0,0,0,0.342,0.3425,0.3433,0.3442,0.3492,0.3562,0.357,0.3585,0.357,0.3595,0.3591,0.3564,0.3599,0.3573,0.3572,0.3623,0.3617,0.3622,0.3627,0.3728,0.3745,0.3759,0,0,0,0,0,0,0.337,0.3428,0.3437,0.3456,0.3515,0.3564,0.3586,0.3595,0.3613,0.3606,0.3588,0.3586,0.3628,0.3609,0.3581,0.3662,0.3606,0.3611,0.3683,0.3699,0.3711,0.3719,0.3541,0,0,0,0,0,0.3362,0.3387,0.345,0.3469,0.3503,0.3546,0.357,0.359,0.3618,0.3625,0.3624,0.3627,0.365,0.3659,0.3667,0.3706,0.3724,0.3741,0.3753,0.3764,0.3771,0.3867,0.389,0.3647,0.3647,0.3647,0,0,0.3346,0.3383,0.3394,0.3461,0.3506,0.3567,0.3559,0.3615,0.3654,0.3619,0.366,0.3667,0.3669,0.372,0.3737,0.371,0.3843,0.377,0.378,0.3781,0.3875,0.3899,0.392,0.3651,0.365,0.3649,0,0,0.3356,0.3372,0.3411,0.3465,0.3544,0.358,0.3602,0.3666,0.3685,0.3733,0.3724,0.3763,0.3781,0.3808,0.3819,0.3904,0.3905,0.3911,0.3983,0.4078,0.4099,0.4118,0.4174,0.4197,0.3919,0.3919,0.392,0,0.3336,0.3397,0.3434,0.3498,0.3546,0.3592,0.3658,0.3692,0.3747,0.3778,0.3757,0.3834,0.3828,0.3912,0.3944,0.3934,0.3979,0.3926,0.4096,0.4115,0.4132,0.4186,0.421,0.3925,0.3925,0.3924,0.3924,0,0.3395,0.3442,0.3479,0.3573,0.3622,0.3692,0.3755,0.3799,0.3823,0.3861,0.3943,0.3955,0.4007,0.402,0.4005,0.4133,0.4122,0.4102,0.406,0.4164,0.4213,0.4236,0.3934,0.3932,0.393,0.3929,0,0,0.3369,0.3495,0.3509,0.3562,0.3671,0.3719,0.3796,0.3892,0.3957,0.3999,0.409,0.4134,0.4155,0.417,0.4176,0.425,0.4404,0.4237,0.4239,0.4296,0.4611,0.4566,0.4585,0.4432,0.4437,0.444,0.4597,0,0.3418,0.3525,0.3585,0.3689,0.3754,0.3822,0.3898,0.3974,0.4041,0.4135,0.4174,0.4258,0.421,0.4261,0.433,0.4391,0.447,0.4363,0.4498,0.4501,0.4452,0.4612,0.4531,0.4662,0.4619,0.4622,0.4625,0,0.3468,0.3534,0.3638,0.3759,0.3798,0.3859,0.3991,0.4075,0.4208,0.4268,0.4358,0.4392,0.4504,0.4451,0.461,0.4554,0.4595,0.4627,0.4634,0.4567,0.45,0.4551,0.4704,0.463,0.466,0.4657,0.4654,0,0.343,0.3571,0.3648,0.3691,0.3836,0.3888,0.3971,0.4105,0.4168,0.4366,0.4419,0.4569,0.4625,0.473,0.4761,0.4726,0.4925,0.4882,0.4875,0.487,0.4811,0.4794,0.491,0.5012,0.5011,0.5011,0.501,0,0.3461,0.352,0.3632,0.3673,0.3763,0.3878,0.3983,0.4105,0.4248,0.437,0.448,0.4584,0.4702,0.4795,0.4845,0.4932,0.4997,0.4928,0.4933,0.4845,0.483,0.4765,0.469,0.5017,0.5015,0.5014,0.5013,0,0.3407,0.3496,0.3572,0.3706,0.3744,0.3804,0.3929,0.4016,0.4178,0.4339,0.4402,0.4596,0.4789,0.4855,0.5039,0.5013,0.5005,0.512,0.4986,0.4974,0.4891,0.4823,0.4701,0.4555,0.5181,0.5182,0.5182,0,0.3389,0.3427,0.3539,0.3574,0.3632,0.3719,0.3792,0.3962,0.4064,0.4358,0.444,0.465,0.4817,0.5018,0.5095,0.5202,0.502,0.5123,0.5038,0.4918,0.4849,0.4598,0.4465,0.5008,0.5007,0.5006,0.5005,0,0.3332,0.3369,0.3424,0.3485,0.3549,0.3622,0.3747,0.3782,0.4054,0.4184,0.4433,0.4593,0.487,0.4982,0.5097,0.5146,0.4916,0.5104,0.5044,0.479,0.4463,0.4314,0.484,0.4996,0.4997,0.4997,0.4998,0.4998,0.3255,0.3268,0.333,0.3383,0.3448,0.3517,0.3527,0.3685,0.3811,0.4028,0.4308,0.4513,0.482,0.5012,0.5008,0.4986,0.487,0.4905,0.4856,0.4629,0.4414,0.4898,0.501,0.5011,0.5011,0.5012,0.5013,0,0.3138,0.3181,0.3228,0.3275,0.3288,0.3383,0.3491,0.3496,0.3593,0.3902,0.4092,0.4424,0.4596,0.4785,0.4938,0.4796,0.4524,0.4667,0.4337,0.4234,0.4778,0.47,0.467,0.467,0.467,0.467,0.467,0.467,0.3078,0.3079,0.3116,0.3099,0.3136,0.3116,0.3144,0.3199,0.3363,0.3571,0.3786,0.4023,0.4478,0.4788,0.4787,0.4666,0.4282,0.4103,0.4002,0.447,0.4488,0.4505,0.442,0.4331,0.4331,0.3329,0.3322,0.3317]},{"header":{"parameterUnit":"m.s-1","parameterCategory":2,"la1":30.2991,"la2":30.254,"lo1":-89.0895,"lo2":-89.0444,"dy":0.0017,"dx":0.0017,"nx":28,"ny":28,"refTime":"2024-06-21T09:00:00:Z","depth":"0","parameterNumber":3,"parameterNumberName":"V-component_of_CURRENTS"},"data":[0,0,0,0,0,0,0,0,0,0,0,0,0,0,0,0,0,0,0,0,0,0,0,0,0,0,0,0,0,0,0,0,0,0,0,0,0,0,0,0,0,0,0,0,0,0,0,0,0,0,0,0,0,0,0,0,0,0,-0.0137,-0.0137,0,-0.0181,-0.0181,-0.0182,-0.0221,-0.0222,-0.0222,-0.0223,-0.0352,-0.0355,-0.0358,0,0,0,0,0,0,0,0,0,0,0,0,0,-0.0124,-0.0124,-0.0137,-0.0137,-0.0138,-0.0181,-0.0181,-0.0182,-0.0221,-0.0222,-0.0222,-0.0223,-0.0351,-0.0354,-0.0358,0,0,0,0,0,0,0,0,0,0,0,0,0,-0.0145,-0.0124,-0.0137,-0.0162,-0.0165,-0.018,-0.0181,-0.0182,-0.0221,-0.0222,-0.0223,-0.0223,-0.0349,-0.0354,-0.0358,-0.0373,0,0,-0.0372,-0.0374,0,0,0,0,0,0,0,0,-0.0144,-0.0146,-0.0158,-0.0161,-0.0164,-0.0196,-0.0224,-0.025,-0.0221,-0.02,-0.0223,-0.0224,-0.0307,-0.0315,-0.0321,-0.0379,-0.0384,-0.0373,-0.0375,-0.0377,-0.0378,0,0,0,0,0,0,0,-0.0142,-0.0144,-0.0155,-0.0159,-0.0162,-0.0184,-0.0188,-0.0229,-0.0251,-0.0202,-0.0205,-0.0209,-0.0309,-0.0316,-0.0324,-0.0386,-0.0372,-0.0376,-0.0379,-0.0381,-0.0478,-0.0478,0,0,0,0,0,0,-0.0133,-0.0142,-0.0153,-0.0156,-0.0155,-0.0184,-0.0188,-0.0185,-0.0249,-0.0258,-0.0209,-0.0211,-0.0308,-0.0319,-0.0329,-0.0356,-0.0377,-0.0381,-0.0384,-0.0478,-0.0478,-0.0478,0,0,0,0,0,0,-0.0133,-0.0134,-0.0151,-0.015,-0.0154,-0.0183,-0.018,-0.0186,-0.0194,-0.0253,-0.0264,-0.0211,-0.0309,-0.0323,-0.0358,-0.0361,-0.0383,-0.0388,-0.0478,-0.0478,-0.0478,-0.0407,0,0,0,0,0,0,-0.0132,-0.0133,-0.0124,-0.0149,-0.0154,-0.0151,-0.018,-0.0186,-0.0195,-0.0198,-0.0258,-0.0271,-0.0311,-0.035,-0.0362,-0.0368,-0.0391,-0.0478,-0.0478,-0.0478,-0.0409,-0.0404,-0.04,0,0,0,0,0,-0.0131,-0.0116,-0.0123,-0.0125,-0.0142,-0.015,-0.0154,-0.0178,-0.0194,-0.0189,-0.023,-0.0269,-0.0358,-0.0353,-0.0367,-0.0375,-0.0478,-0.0478,-0.0478,-0.0411,-0.0405,-0.04,0,0,0,0,0,0,-0.0101,-0.0119,-0.0128,-0.0117,-0.0129,-0.0157,-0.0152,-0.0172,-0.0199,-0.0205,-0.0264,-0.0279,-0.0317,-0.035,-0.0344,-0.0402,-0.0426,-0.0429,-0.0371,-0.0366,-0.0361,-0.0316,-0.0395,0,0,0,0,0,-0.009,-0.0085,-0.0105,-0.0095,-0.0097,-0.0124,-0.013,-0.0147,-0.0175,-0.0187,-0.0228,-0.0277,-0.0326,-0.0347,-0.0394,-0.0416,-0.0434,-0.0432,-0.0427,-0.0422,-0.0395,-0.0432,-0.0427,-0.0476,-0.0476,-0.0476,0,0,-0.0075,-0.0084,-0.008,-0.0089,-0.0099,-0.0088,-0.0129,-0.0132,-0.0128,-0.0199,-0.0207,-0.0265,-0.033,-0.0361,-0.0381,-0.0388,-0.0417,-0.0422,-0.0418,-0.0392,-0.0431,-0.0426,-0.0421,-0.0476,-0.0476,-0.0476,0,0,-0.0034,-0.0048,-0.0026,-0.0032,-0.0043,-0.006,-0.0058,-0.0082,-0.0099,-0.0114,-0.0174,-0.0222,-0.0281,-0.0329,-0.0362,-0.0357,-0.0397,-0.0381,-0.0314,-0.035,-0.0346,-0.0342,-0.0348,-0.0346,-0.0371,-0.0371,-0.0371,0,-0.0011,0.0012,-0.002,0.0001,0.0007,-0.0042,-0.0011,-0.0036,-0.007,-0.0075,-0.0105,-0.0197,-0.0263,-0.0304,-0.0306,-0.0346,-0.0357,-0.0331,-0.0342,-0.0339,-0.0336,-0.0343,-0.0342,-0.0367,-0.0368,-0.0368,-0.0368,0,0.0044,0.0065,0.0078,0.009,0.009,0.0105,0.0073,0.0066,0.0036,0.0011,-0.0033,-0.012,-0.0165,-0.0212,-0.0258,-0.028,-0.0291,-0.0338,-0.035,-0.0327,-0.0336,-0.0335,-0.0362,-0.0364,-0.0365,-0.0365,0,0,0.0101,0.0116,0.0125,0.0152,0.0139,0.0151,0.0154,0.015,0.0171,0.0102,0.0121,0.0004,-0.0041,-0.0081,-0.0161,-0.0199,-0.0209,-0.0246,-0.025,-0.0239,-0.0257,-0.029,-0.0292,-0.0256,-0.0256,-0.0255,-0.0266,0,0.0163,0.0229,0.0211,0.0274,0.0312,0.027,0.0286,0.0269,0.0247,0.0249,0.014,0.0113,0.0006,-0.0015,-0.0071,-0.0168,-0.0204,-0.0199,-0.0291,-0.0293,-0.0316,-0.0292,-0.0269,-0.0279,-0.0266,-0.0266,-0.0266,0,0.0234,0.0271,0.0345,0.0386,0.0398,0.0422,0.0454,0.046,0.0432,0.0414,0.0364,0.0283,0.0209,0.0112,-0.0025,-0.0011,-0.0118,-0.0202,-0.0206,-0.0255,-0.0325,-0.0305,-0.0279,-0.0512,-0.0265,-0.0265,-0.0265,0,0.0316,0.0369,0.0434,0.0446,0.0476,0.0505,0.0523,0.0522,0.0544,0.0528,0.0549,0.0435,0.0405,0.0249,0.0063,0.0027,-0.0074,-0.0151,-0.0281,-0.0284,-0.0289,-0.0293,-0.0487,-0.0246,-0.0246,-0.0246,-0.0246,0,0.0398,0.0456,0.0481,0.0523,0.0604,0.0598,0.068,0.0683,0.0703,0.0779,0.0644,0.0682,0.044,0.0338,0.0141,-0.0045,-0.0017,-0.0247,-0.0288,-0.0265,-0.0266,-0.0492,-0.0635,-0.0246,-0.0246,-0.0246,-0.0246,0,0.0485,0.0498,0.058,0.0629,0.0649,0.0715,0.0783,0.0852,0.0853,0.0956,0.0955,0.0879,0.0769,0.0512,0.0291,0.0081,-0.0255,-0.0202,-0.0142,-0.0178,-0.0537,-0.0676,-0.0893,-0.1013,-0.0337,-0.0338,-0.0338,0,0.0539,0.0586,0.066,0.0719,0.0749,0.0834,0.0907,0.0929,0.1023,0.1101,0.1178,0.1088,0.1087,0.0733,0.0341,-0.0,-0.0254,-0.0227,-0.0318,-0.0536,-0.0722,-0.0825,-0.0918,-0.0289,-0.0289,-0.029,-0.029,0,0.0638,0.0654,0.0718,0.0836,0.0926,0.1023,0.1144,0.123,0.1308,0.141,0.1554,0.1555,0.1226,0.0912,0.0404,0.013,-0.0403,-0.0244,-0.0491,-0.0711,-0.0812,-0.0952,-0.0289,-0.0292,-0.0292,-0.0291,-0.0291,-0.0291,0.0708,0.0767,0.0846,0.0959,0.107,0.1224,0.1338,0.149,0.1663,0.1865,0.1862,0.1947,0.144,0.0755,0.0341,-0.041,-0.044,-0.063,-0.0777,-0.0856,-0.0997,-0.0326,-0.0376,-0.0377,-0.0377,-0.0377,-0.0377,0,0.0792,0.0855,0.0968,0.1112,0.1257,0.1291,0.1504,0.1646,0.1901,0.211,0.2253,0.2093,0.1443,0.0743,-0.0255,-0.0808,-0.1036,-0.1126,-0.1272,-0.1343,-0.0749,-0.0773,-0.0887,-0.0887,-0.0887,-0.0887,-0.0886,-0.0886,0.0844,0.0954,0.1006,0.1243,0.1356,0.1564,0.1696,0.1925,0.2118,0.2403,0.251,0.253,0.2033,0.0237,-0.1022,-0.1343,-0.1714,-0.181,-0.2022,-0.1629,-0.1594,-0.1561,-0.1618,-0.1907,-0.1908,-0.253,-0.2537,-0.2542]}],[{"header":{"parameterUnit":"m.s-1","parameterCategory":2,"la1":30.2991,"la2":30.254,"lo1":-89.0895,"lo2":-89.0444,"dy":0.0017,"dx":0.0017,"nx":28,"ny":28,"refTime":"2024-06-21T09:00:00:Z","depth":"2","parameterNumber":2,"parameterNumberName":"U-component_of_CURRENTS"},"data":[0,0,0,0,0,0,0,0,0,0,0,0,0,0,0,0,0,0,0,0,0,0,0,0,0,0,0,0,0,0,0,0,0,0,0,0,0,0,0,0,0,0,0,0,0,0,0,0,0,0,0,0,0,0,0,0,0,0,0.3216,0.3218,0,0.3278,0.3277,0.3277,0.3341,0.3343,0.3345,0.3347,0.344,0.3441,0.3441,0,0,0,0,0,0,0,0,0,0,0,0,0,0.3064,0.3066,0.3216,0.3218,0.322,0.3278,0.3277,0.3277,0.334,0.3343,0.3346,0.3348,0.344,0.3441,0.3441,0,0,0,0,0,0,0,0,0,0,0,0,0,0.3115,0.3066,0.3216,0.3269,0.3276,0.3278,0.3277,0.3277,0.334,0.3343,0.3346,0.3349,0.344,0.3441,0.3441,0.338,0,0,0.3443,0.3444,0,0,0,0,0,0,0,0,0.3112,0.3118,0.3259,0.3266,0.3273,0.3318,0.3259,0.3318,0.3339,0.33,0.3347,0.3351,0.3409,0.3412,0.3396,0.3384,0.3388,0.3443,0.3444,0.3444,0.3444,0,0,0,0,0,0,0,0.3108,0.3116,0.3226,0.3262,0.327,0.3261,0.3271,0.3269,0.3325,0.3304,0.3312,0.3341,0.3412,0.3395,0.3399,0.3389,0.3443,0.3444,0.3444,0.3445,0.3594,0.3598,0,0,0,0,0,0,0.3131,0.3113,0.3224,0.3229,0.3215,0.3263,0.3273,0.3288,0.3325,0.3337,0.3338,0.3344,0.3392,0.3398,0.3403,0.3494,0.3444,0.3445,0.3445,0.3591,0.3595,0.3599,0,0,0,0,0,0,0.3127,0.3139,0.3222,0.3185,0.3197,0.3264,0.3279,0.3288,0.3359,0.3353,0.3364,0.3412,0.3395,0.3402,0.344,0.3493,0.3445,0.3446,0.3586,0.3592,0.3597,0.3574,0,0,0,0,0,0,0.3122,0.3137,0.3153,0.3186,0.32,0.3264,0.3278,0.3287,0.3373,0.3383,0.3418,0.3425,0.3398,0.3439,0.3441,0.3493,0.3446,0.3582,0.3589,0.3595,0.357,0.3578,0.3584,0,0,0,0,0,0.3116,0.314,0.3153,0.3168,0.3221,0.3267,0.3271,0.332,0.3375,0.3397,0.3417,0.3429,0.3487,0.344,0.3442,0.3495,0.3579,0.3587,0.3595,0.3567,0.3576,0.3584,0,0,0,0,0,0,0.3102,0.315,0.3166,0.3209,0.3253,0.3284,0.3313,0.3367,0.3398,0.3419,0.3429,0.3434,0.3485,0.3512,0.3462,0.3572,0.3554,0.3562,0.3533,0.3541,0.3548,0.3553,0.3447,0,0,0,0,0,0.31,0.3123,0.3175,0.3213,0.3235,0.3288,0.3321,0.3361,0.3398,0.342,0.3436,0.3478,0.3503,0.3543,0.3541,0.3591,0.3616,0.365,0.3657,0.3662,0.3676,0.3734,0.3745,0.3625,0.3625,0.3625,0,0,0.3103,0.3141,0.3153,0.3211,0.324,0.3267,0.3314,0.3381,0.3419,0.3421,0.3464,0.3478,0.3518,0.3547,0.3584,0.3591,0.3714,0.3673,0.3676,0.3687,0.3743,0.3754,0.3763,0.3631,0.363,0.3629,0,0,0.3124,0.3157,0.3178,0.3207,0.3277,0.3296,0.3343,0.3395,0.3435,0.3472,0.3489,0.3541,0.3581,0.3604,0.3632,0.3699,0.3725,0.3743,0.3799,0.3853,0.3862,0.387,0.3912,0.3924,0.3774,0.3774,0.3774,0,0.312,0.3159,0.3196,0.3225,0.3262,0.3325,0.3364,0.3392,0.3452,0.3485,0.3498,0.3582,0.3604,0.3679,0.3702,0.3709,0.3746,0.3743,0.3856,0.3865,0.3873,0.3914,0.3927,0.3774,0.3774,0.3774,0.3774,0,0.3143,0.318,0.3201,0.3242,0.3288,0.3328,0.3383,0.3421,0.3484,0.3515,0.3598,0.3614,0.3683,0.3717,0.3724,0.3825,0.3831,0.3823,0.3813,0.3882,0.3923,0.3937,0.3774,0.3774,0.3774,0.3774,0,0,0.3104,0.3191,0.3197,0.3226,0.3301,0.3338,0.3398,0.3462,0.3533,0.3569,0.3656,0.3704,0.3741,0.378,0.3817,0.3887,0.3964,0.3899,0.3902,0.3904,0.4089,0.4071,0.4084,0.3974,0.3977,0.3979,0.4089,0,0.3103,0.3158,0.321,0.3264,0.3299,0.3362,0.3415,0.3487,0.3563,0.3635,0.3697,0.3779,0.3764,0.3831,0.388,0.3945,0.4003,0.3935,0.4056,0.406,0.4004,0.4101,0.3808,0.3881,0.4103,0.4105,0.4107,0,0.3084,0.3143,0.3197,0.3291,0.3312,0.3351,0.3468,0.3526,0.3635,0.3706,0.3792,0.3844,0.3946,0.3932,0.4054,0.4016,0.4056,0.4098,0.4103,0.4106,0.4069,0.3855,0.3898,0.413,0.4128,0.4127,0.4125,0,0.3032,0.3117,0.3165,0.319,0.3305,0.3353,0.3419,0.3546,0.3606,0.3772,0.3837,0.3951,0.4028,0.4092,0.4165,0.413,0.4296,0.4249,0.4263,0.4261,0.4048,0.4023,0.4335,0.4335,0.4334,0.4334,0.4334,0,0.2992,0.3029,0.3142,0.3168,0.3237,0.3341,0.3429,0.3526,0.3659,0.3749,0.3867,0.3972,0.4078,0.4171,0.421,0.4291,0.4326,0.4298,0.4303,0.4036,0.401,0.4253,0.4242,0.4338,0.4337,0.4336,0.4336,0,0.2921,0.2986,0.3036,0.3164,0.3209,0.3259,0.3394,0.3465,0.3615,0.3744,0.3802,0.3994,0.4164,0.4243,0.4392,0.4357,0.444,0.4453,0.4136,0.4103,0.435,0.4338,0.4479,0.448,0.4481,0.4481,0.4481,0,0.2886,0.2901,0.3012,0.3053,0.3112,0.3204,0.3277,0.3427,0.352,0.3762,0.3823,0.4037,0.4169,0.4358,0.4414,0.4491,0.4512,0.4226,0.4106,0.4382,0.4373,0.4359,0.4346,0.3805,0.38,0.3796,0.3792,0,0.282,0.2846,0.2911,0.2991,0.3059,0.3121,0.3249,0.3282,0.3488,0.3599,0.3796,0.3924,0.4172,0.4162,0.4284,0.4274,0.4191,0.4145,0.4526,0.3829,0.3759,0.3746,0.3753,0.3754,0.3758,0.3761,0.3763,0.3764,0.2783,0.2794,0.2869,0.2923,0.2983,0.3031,0.3039,0.3174,0.3261,0.3402,0.3636,0.3739,0.3883,0.395,0.3885,0.3846,0.4116,0.3911,0.3918,0.3931,0.3848,0.3785,0.3768,0.3772,0.3775,0.3778,0.3781,0,0.2727,0.2768,0.2809,0.2865,0.2852,0.2945,0.3012,0.2988,0.3029,0.324,0.3369,0.3224,0.3289,0.3412,0.3335,0.3379,0.327,0.3216,0.3035,0.3081,0.312,0.2987,0.2683,0.2679,0.2674,0.267,0,0,0.2737,0.2728,0.2728,0.2693,0.2746,0.2709,0.2706,0.2681,0.2766,0.278,0.2844,0.3149,0.3356,0.2965,0.2961,0.2807,0.2895,0.2701,0.3604,0.3441,0.3473,0.3575,0.3433,0,0,0,0,0]},{"header":{"parameterUnit":"m.s-1","parameterCategory":2,"la1":30.2991,"la2":30.254,"lo1":-89.0895,"lo2":-89.0444,"dy":0.0017,"dx":0.0017,"nx":28,"ny":28,"refTime":"2024-06-21T09:00:00:Z","depth":"2","parameterNumber":3,"parameterNumberName":"V-component_of_CURRENTS"},"data":[0,0,0,0,0,0,0,0,0,0,0,0,0,0,0,0,0,0,0,0,0,0,0,0,0,0,0,0,0,0,0,0,0,0,0,0,0,0,0,0,0,0,0,0,0,0,0,0,0,0,0,0,0,0,0,0,0,0,-0.0129,-0.013,0,-0.0192,-0.0192,-0.0193,-0.0254,-0.0255,-0.0256,-0.0257,-0.0389,-0.0391,-0.0394,0,0,0,0,0,0,0,0,0,0,0,0,0,-0.0079,-0.008,-0.0129,-0.013,-0.0131,-0.0192,-0.0192,-0.0193,-0.0254,-0.0255,-0.0256,-0.0257,-0.0388,-0.0391,-0.0394,0,0,0,0,0,0,0,0,0,0,0,0,0,-0.0115,-0.008,-0.0129,-0.017,-0.0175,-0.0192,-0.0193,-0.0193,-0.0254,-0.0255,-0.0257,-0.0258,-0.0387,-0.0391,-0.0394,-0.0389,0,0,-0.0406,-0.0408,0,0,0,0,0,0,0,0,-0.0113,-0.0117,-0.0163,-0.0167,-0.0172,-0.0218,-0.0223,-0.0263,-0.0253,-0.0222,-0.0257,-0.0259,-0.0338,-0.0346,-0.0351,-0.0395,-0.0401,-0.0407,-0.0409,-0.0411,-0.0412,0,0,0,0,0,0,0,-0.0111,-0.0115,-0.0152,-0.0164,-0.017,-0.0192,-0.0198,-0.0231,-0.0271,-0.0224,-0.023,-0.0239,-0.0341,-0.0347,-0.0355,-0.0403,-0.0407,-0.041,-0.0412,-0.0414,-0.0516,-0.0517,0,0,0,0,0,0,-0.0104,-0.0112,-0.015,-0.0154,-0.0148,-0.0191,-0.0198,-0.0201,-0.0269,-0.0281,-0.0238,-0.0242,-0.034,-0.035,-0.036,-0.0375,-0.0411,-0.0414,-0.0417,-0.0516,-0.0517,-0.0517,0,0,0,0,0,0,-0.0103,-0.0107,-0.0148,-0.0137,-0.0144,-0.0191,-0.0193,-0.0201,-0.0233,-0.0279,-0.0292,-0.0264,-0.0341,-0.0354,-0.0385,-0.038,-0.0416,-0.042,-0.0516,-0.0516,-0.0517,-0.0395,0,0,0,0,0,0,-0.0101,-0.0105,-0.0103,-0.0136,-0.0144,-0.0152,-0.0192,-0.0201,-0.0236,-0.0242,-0.0305,-0.0318,-0.0343,-0.0378,-0.0389,-0.0386,-0.0423,-0.0515,-0.0516,-0.0517,-0.0399,-0.0392,-0.0385,0,0,0,0,0,-0.0099,-0.0088,-0.0103,-0.0108,-0.014,-0.0152,-0.0157,-0.0195,-0.0236,-0.0233,-0.0275,-0.0317,-0.0392,-0.0381,-0.0393,-0.0392,-0.0515,-0.0516,-0.0517,-0.0402,-0.0393,-0.0386,0,0,0,0,0,0,-0.007,-0.0095,-0.0111,-0.011,-0.0128,-0.0163,-0.0165,-0.0205,-0.0236,-0.0249,-0.0306,-0.0319,-0.0343,-0.0392,-0.0379,-0.0429,-0.0467,-0.0471,-0.0376,-0.0369,-0.0362,-0.0334,-0.0426,0,0,0,0,0,-0.0061,-0.0058,-0.0086,-0.0086,-0.0092,-0.0135,-0.0149,-0.0175,-0.0208,-0.0226,-0.0265,-0.0317,-0.0352,-0.038,-0.0409,-0.0433,-0.0473,-0.045,-0.0443,-0.0437,-0.0425,-0.0468,-0.0463,-0.052,-0.052,-0.052,0,0,-0.0049,-0.0064,-0.0063,-0.008,-0.0097,-0.0085,-0.0146,-0.0162,-0.016,-0.0234,-0.0241,-0.0287,-0.0352,-0.0364,-0.0384,-0.0408,-0.0443,-0.0438,-0.0431,-0.0424,-0.0468,-0.0463,-0.0457,-0.052,-0.052,-0.052,0,0,-0.0015,-0.0036,-0.0017,-0.0022,-0.0044,-0.0062,-0.0072,-0.0104,-0.0126,-0.0138,-0.0191,-0.0229,-0.0288,-0.0317,-0.0349,-0.0333,-0.0398,-0.0365,-0.0313,-0.0354,-0.0349,-0.0345,-0.0382,-0.0383,-0.0371,-0.0371,-0.037,0,0.0004,0.0019,-0.0014,0.0007,0.001,-0.0051,-0.0024,-0.0046,-0.0085,-0.0093,-0.0128,-0.0205,-0.026,-0.0284,-0.0278,-0.0313,-0.035,-0.0328,-0.0341,-0.0338,-0.0336,-0.0376,-0.0377,-0.0365,-0.0365,-0.0366,-0.0367,0,0.0055,0.007,0.0081,0.0094,0.0093,0.0105,0.0077,0.0069,0.0026,0.0001,-0.0031,-0.0096,-0.0145,-0.0179,-0.0223,-0.0242,-0.0277,-0.0314,-0.0348,-0.0322,-0.0367,-0.0371,-0.0357,-0.0359,-0.036,-0.0362,0,0,0.0104,0.0119,0.0125,0.0149,0.0141,0.0149,0.0159,0.0157,0.0163,0.011,0.0111,0.0038,-0.0011,-0.0051,-0.0121,-0.0169,-0.0187,-0.0232,-0.0237,-0.0246,-0.0277,-0.0291,-0.0297,-0.0225,-0.0225,-0.0225,-0.0311,0,0.016,0.0221,0.0209,0.0268,0.03,0.0266,0.0286,0.0272,0.0242,0.0236,0.0146,0.0123,0.0038,0.0014,-0.0043,-0.0145,-0.0193,-0.016,-0.0323,-0.0327,-0.0323,-0.0301,-0.0269,-0.0342,-0.0316,-0.0317,-0.0317,0,0.0221,0.0254,0.0323,0.0362,0.0373,0.04,0.0422,0.0433,0.0403,0.0378,0.0331,0.0259,0.0189,0.0107,-0.0045,-0.0021,-0.0135,-0.0225,-0.0231,-0.0287,-0.0348,-0.037,-0.0351,-0.0324,-0.0324,-0.0323,-0.0323,0,0.0278,0.0335,0.0393,0.0409,0.0443,0.0468,0.0486,0.048,0.0504,0.0472,0.0477,0.0374,0.0332,0.0179,-0.0005,-0.0027,-0.0175,-0.0231,-0.0352,-0.0355,-0.0381,-0.0385,-0.0337,-0.0337,-0.0337,-0.0337,-0.0336,0,0.0344,0.0393,0.0427,0.0464,0.0539,0.0537,0.0604,0.0607,0.0621,0.0677,0.0558,0.0571,0.0347,0.0231,0.0044,-0.0151,-0.0138,-0.0331,-0.0373,-0.034,-0.0339,-0.0372,-0.0375,-0.034,-0.0339,-0.0339,-0.0338,0,0.0395,0.0417,0.0491,0.0546,0.0569,0.0624,0.0695,0.0749,0.0745,0.0815,0.0812,0.0722,0.0582,0.0349,0.011,-0.007,-0.027,-0.0348,-0.0289,-0.0323,-0.0439,-0.0435,-0.0492,-0.0493,-0.0494,-0.0495,-0.0496,0,0.0426,0.0468,0.0554,0.0611,0.064,0.0717,0.0781,0.0811,0.0884,0.0922,0.0975,0.0861,0.081,0.0449,0.0117,-0.0204,-0.0256,-0.0396,-0.0437,-0.0417,-0.0453,-0.0447,-0.0442,-0.043,-0.043,-0.043,-0.043,0,0.0485,0.051,0.0574,0.0694,0.0776,0.0871,0.0972,0.1046,0.1106,0.1161,0.1233,0.1194,0.087,0.0564,0.0118,-0.011,-0.0344,-0.0408,-0.0398,-0.0389,-0.0364,-0.0397,-0.0394,-0.0431,-0.0431,-0.0431,-0.0431,-0.0431,0.0526,0.0581,0.0669,0.0782,0.0886,0.1024,0.1118,0.1234,0.1358,0.1466,0.1431,0.1399,0.1039,0.0491,0.0086,-0.0344,-0.0333,-0.0488,-0.0486,-0.0484,-0.0455,-0.0432,-0.0506,-0.0507,-0.0507,-0.0507,-0.0508,0,0.0579,0.0646,0.0756,0.0897,0.1023,0.1073,0.1248,0.1346,0.1508,0.161,0.1658,0.135,0.0997,0.058,-0.0046,-0.0431,-0.0475,-0.0557,-0.0519,-0.0515,-0.0512,-0.0483,-0.0544,-0.0545,-0.0546,-0.0547,0,0,0.0609,0.0718,0.0775,0.0982,0.1094,0.1272,0.138,0.1519,0.1629,0.1723,0.1731,0.1673,0.1174,0.0723,0.0192,-0.0169,-0.0261,-0.0253,-0.0184,-0.0074,-0.0067,-0.0433,-0.0379,0,0,0,0,0]}],[{"header":{"parameterUnit":"m.s-1","parameterCategory":2,"la1":30.2991,"la2":30.254,"lo1":-89.0895,"lo2":-89.0444,"dy":0.0017,"dx":0.0017,"nx":28,"ny":28,"refTime":"2024-06-21T09:00:00:Z","depth":"4","parameterNumber":2,"parameterNumberName":"U-component_of_CURRENTS"},"data":[0,0,0,0,0,0,0,0,0,0,0,0,0,0,0,0,0,0,0,0,0,0,0,0,0,0,0,0,0,0,0,0,0,0,0,0,0,0,0,0,0,0,0,0,0,0,0,0,0,0,0,0,0,0,0,0,0,0,0.1831,0.1831,0,0.1874,0.1874,0.1874,0.192,0.192,0.1921,0.1922,0.2028,0.203,0.2032,0,0,0,0,0,0,0,0,0,0,0,0,0,0.1765,0.1766,0.1831,0.1831,0.1832,0.1873,0.1874,0.1875,0.192,0.192,0.1921,0.1922,0.2027,0.203,0.2032,0,0,0,0,0,0,0,0,0,0,0,0,0,0.1799,0.1766,0.1831,0.186,0.1863,0.1873,0.1874,0.1875,0.1919,0.192,0.1921,0.1922,0.2026,0.2029,0.2033,0.2033,0,0,0.2043,0.2044,0,0,0,0,0,0,0,0,0.1797,0.1801,0.1855,0.1858,0.1861,0.1893,0.189,0.1931,0.1919,0.1897,0.1922,0.1923,0.1988,0.1994,0.1999,0.2038,0.2043,0.2043,0.2045,0.2046,0.2047,0,0,0,0,0,0,0,0.1794,0.1799,0.1847,0.1855,0.1859,0.1862,0.1868,0.1897,0.1938,0.1899,0.1903,0.1908,0.199,0.1995,0.2002,0.2044,0.2043,0.2046,0.2048,0.2049,0.22,0.2202,0,0,0,0,0,0,0.179,0.1797,0.1846,0.1849,0.1831,0.1863,0.187,0.1881,0.1936,0.1945,0.1907,0.191,0.1989,0.1998,0.2006,0.2124,0.2046,0.205,0.2051,0.2198,0.2201,0.2203,0,0,0,0,0,0,0.1788,0.1794,0.1844,0.1824,0.183,0.1863,0.1876,0.1882,0.1929,0.1941,0.1951,0.1953,0.199,0.2001,0.2078,0.2124,0.2051,0.2054,0.2196,0.2199,0.2202,0.2288,0,0,0,0,0,0,0.1786,0.1793,0.1823,0.1824,0.1831,0.1879,0.1875,0.1882,0.1928,0.1933,0.1983,0.1991,0.1992,0.2073,0.2081,0.2128,0.2057,0.2193,0.2197,0.2201,0.2282,0.2293,0.2303,0,0,0,0,0,0.1784,0.181,0.1824,0.1832,0.1864,0.1881,0.1886,0.1911,0.193,0.1957,0.2001,0.1992,0.2102,0.2078,0.2087,0.2135,0.2191,0.2196,0.22,0.2278,0.2291,0.2303,0,0,0,0,0,0,0.1792,0.1817,0.1833,0.1866,0.1888,0.1889,0.1919,0.1936,0.199,0.2009,0.2024,0.2036,0.2119,0.2116,0.2088,0.2189,0.2143,0.215,0.2199,0.2211,0.2221,0.2234,0.2059,0,0,0,0,0,0.1808,0.1843,0.1856,0.1889,0.1901,0.192,0.194,0.1956,0.1989,0.2015,0.2054,0.2094,0.2136,0.2167,0.2199,0.2258,0.2274,0.2292,0.2303,0.2311,0.2328,0.2388,0.2406,0.2218,0.2218,0.2218,0,0,0.1816,0.184,0.1858,0.1895,0.1913,0.1943,0.1936,0.1974,0.2017,0.2018,0.211,0.2139,0.2161,0.2229,0.2265,0.2239,0.2377,0.2317,0.2324,0.2336,0.2395,0.2413,0.243,0.2221,0.222,0.222,0,0,0.1838,0.1876,0.1907,0.1932,0.1971,0.1985,0.2007,0.204,0.2079,0.2156,0.217,0.2233,0.2299,0.2323,0.234,0.2427,0.2431,0.2437,0.2502,0.2561,0.2577,0.2591,0.2652,0.2671,0.244,0.244,0.244,0,0.1854,0.1893,0.1919,0.1953,0.1983,0.2011,0.2047,0.2086,0.2148,0.219,0.2202,0.2324,0.2342,0.2422,0.2452,0.2452,0.2489,0.2452,0.2575,0.2589,0.2602,0.2661,0.2681,0.2445,0.2444,0.2444,0.2443,0,0.1883,0.1931,0.1951,0.2012,0.2049,0.2084,0.213,0.2192,0.2249,0.2285,0.2398,0.2436,0.2509,0.252,0.2518,0.2619,0.2618,0.2583,0.2544,0.2627,0.2683,0.2702,0.2451,0.245,0.2448,0.2447,0,0,0.1871,0.1957,0.1969,0.2008,0.2084,0.211,0.2199,0.2275,0.2347,0.2425,0.2523,0.2597,0.2632,0.2655,0.2666,0.2715,0.2839,0.2699,0.27,0.2761,0.2991,0.282,0.2824,0.2833,0.2836,0.2839,0.2998,0,0.189,0.1961,0.2006,0.2085,0.2122,0.2188,0.2269,0.2348,0.2431,0.2535,0.2595,0.2694,0.2678,0.2735,0.2786,0.2831,0.2892,0.28,0.2901,0.2904,0.2742,0.2841,0.285,0.3012,0.3017,0.302,0.3022,0,0.1896,0.1949,0.2026,0.213,0.2154,0.222,0.2356,0.2432,0.2568,0.2638,0.2746,0.28,0.2915,0.2876,0.3018,0.2969,0.2998,0.3017,0.3023,0.2845,0.2768,0.2908,0.3056,0.3054,0.3051,0.3049,0.3047,0,0.1859,0.196,0.203,0.2062,0.2184,0.2254,0.2336,0.2473,0.255,0.2722,0.2804,0.2934,0.3027,0.3092,0.3151,0.3107,0.3288,0.3221,0.3098,0.3087,0.3154,0.3136,0.3318,0.3318,0.3318,0.3317,0.3317,0,0.1841,0.1896,0.2027,0.206,0.2155,0.2257,0.2382,0.248,0.2636,0.2731,0.2865,0.2963,0.3089,0.3195,0.3217,0.3231,0.3353,0.3137,0.3121,0.3187,0.3172,0.3168,0.3149,0.3323,0.3322,0.3321,0.332,0,0.1771,0.1861,0.194,0.2086,0.2138,0.2211,0.2384,0.2467,0.2638,0.2773,0.2838,0.3031,0.3176,0.3275,0.3397,0.3305,0.3336,0.3305,0.3412,0.3395,0.308,0.3064,0.3181,0.3176,0.3172,0.3169,0.3166,0,0.1733,0.1774,0.1933,0.1984,0.2056,0.2182,0.2265,0.2446,0.2532,0.2788,0.2836,0.305,0.3157,0.3208,0.3321,0.3375,0.3322,0.3311,0.3151,0.3096,0.307,0.3059,0.3048,0.316,0.3159,0.3158,0.3157,0,0.1652,0.1731,0.1795,0.1902,0.1999,0.2086,0.2223,0.2264,0.2476,0.2658,0.2772,0.2856,0.3017,0.311,0.3183,0.3203,0.3299,0.3269,0.3275,0.3124,0.3072,0.3048,0.3041,0.3143,0.3145,0.3147,0.3147,0,0.1588,0.1609,0.171,0.179,0.19,0.1947,0.2038,0.2146,0.225,0.252,0.2566,0.2794,0.2991,0.3026,0.3097,0.311,0.3042,0.2908,0.2931,0.2948,0.2794,0.269,0.2654,0,0,0,0,0,0.1503,0.1515,0.1585,0.1656,0.1762,0.1829,0.1985,0.2085,0.2291,0.2307,0.2422,0.2559,0.2675,0.2806,0.2772,0.2996,0.3051,0.2942,0.2906,0.3069,0.3084,0.2923,0,0,0,0,0,0,0.144,0.1495,0.1532,0.1533,0.156,0.1654,0.1746,0.189,0.1913,0.2137,0.2224,0.24,0.2564,0.2671,0.2722,0.2759,0.2682,0.3091,0.3084,0.306,0.3074,0.3086,0.2926,0,0,0,0,0]},{"header":{"parameterUnit":"m.s-1","parameterCategory":2,"la1":30.2991,"la2":30.254,"lo1":-89.0895,"lo2":-89.0444,"dy":0.0017,"dx":0.0017,"nx":28,"ny":28,"refTime":"2024-06-21T09:00:00:Z","depth":"4","parameterNumber":3,"parameterNumberName":"V-component_of_CURRENTS"},"data":[0,0,0,0,0,0,0,0,0,0,0,0,0,0,0,0,0,0,0,0,0,0,0,0,0,0,0,0,0,0,0,0,0,0,0,0,0,0,0,0,0,0,0,0,0,0,0,0,0,0,0,0,0,0,0,0,0,0,0.0062,0.0062,0,0.0022,0.0021,0.002,-0.0007,-0.0007,-0.0007,-0.0007,-0.0076,-0.0077,-0.0079,0,0,0,0,0,0,0,0,0,0,0,0,0,0.0081,0.0081,0.0062,0.0062,0.0061,0.0022,0.0021,0.002,-0.0007,-0.0007,-0.0007,-0.0006,-0.0075,-0.0077,-0.0079,0,0,0,0,0,0,0,0,0,0,0,0,0,0.0058,0.0081,0.0062,0.0045,0.0043,0.0022,0.0021,0.002,-0.0007,-0.0007,-0.0007,-0.0006,-0.0074,-0.0077,-0.008,-0.0098,0,0,-0.0088,-0.009,0,0,0,0,0,0,0,0,0.0059,0.0057,0.0048,0.0046,0.0044,0.0015,0.0003,-0.002,-0.0007,0.001,-0.0007,-0.0006,-0.0046,-0.0051,-0.0062,-0.0102,-0.0105,-0.0089,-0.009,-0.0091,-0.0092,0,0,0,0,0,0,0,0.0061,0.0058,0.0043,0.0048,0.0046,0.0028,0.0025,-0.0002,-0.0021,0.0008,0.0007,0.0006,-0.0048,-0.006,-0.0064,-0.0106,-0.0088,-0.0091,-0.0093,-0.0094,-0.015,-0.015,0,0,0,0,0,0,0.0072,0.006,0.0045,0.0043,0.0055,0.0028,0.0024,0.0022,-0.002,-0.0025,0.0006,0.0005,-0.0055,-0.0061,-0.0067,-0.0071,-0.0091,-0.0094,-0.0096,-0.0151,-0.015,-0.015,0,0,0,0,0,0,0.0073,0.0071,0.0046,0.0052,0.0048,0.0028,0.0026,0.0021,0.0014,-0.002,-0.0027,0.0005,-0.0055,-0.0063,-0.0086,-0.0075,-0.0095,-0.0098,-0.0151,-0.0151,-0.015,-0.0093,0,0,0,0,0,0,0.0074,0.0072,0.0074,0.0053,0.0048,0.0043,0.0026,0.0021,0.0015,0.0013,-0.0024,-0.0031,-0.0056,-0.0081,-0.0088,-0.0079,-0.01,-0.0151,-0.0151,-0.015,-0.0095,-0.0091,-0.0087,0,0,0,0,0,0.0074,0.0082,0.0075,0.0073,0.0053,0.0044,0.004,0.0024,0.0015,0.0016,-0.0011,-0.0029,-0.0084,-0.0083,-0.0092,-0.0083,-0.0151,-0.0151,-0.015,-0.0097,-0.0091,-0.0087,0,0,0,0,0,0,0.0095,0.008,0.0071,0.0074,0.0064,0.0041,0.0042,0.0028,0.0007,0.0007,-0.0031,-0.0039,-0.0055,-0.0079,-0.0077,-0.0099,-0.0119,-0.012,-0.0075,-0.0071,-0.0067,-0.0053,-0.0102,0,0,0,0,0,0.0101,0.01,0.0084,0.0087,0.0085,0.0064,0.0058,0.0048,0.0028,0.0019,-0.0011,-0.004,-0.0061,-0.0073,-0.0099,-0.0112,-0.0148,-0.0112,-0.0108,-0.0104,-0.0099,-0.0148,-0.0148,-0.0149,-0.0149,-0.0149,0,0,0.011,0.0102,0.0101,0.0091,0.0082,0.0087,0.006,0.006,0.0063,0.0014,0.0004,-0.0029,-0.0062,-0.0076,-0.0084,-0.0093,-0.0123,-0.0103,-0.01,-0.0097,-0.0147,-0.0147,-0.0147,-0.0148,-0.0149,-0.0149,0,0,0.0133,0.0122,0.0131,0.0127,0.0121,0.0108,0.0111,0.0089,0.0079,0.0065,0.0033,0.0006,-0.003,-0.0052,-0.0067,-0.0058,-0.0101,-0.0063,-0.003,-0.0078,-0.0078,-0.0079,-0.0125,-0.0131,-0.006,-0.0059,-0.0059,0,0.0145,0.0155,0.0133,0.0146,0.0151,0.0122,0.014,0.0126,0.0097,0.0091,0.0072,0.0015,-0.0017,-0.0031,-0.0027,-0.0047,-0.0083,-0.0043,-0.0072,-0.0074,-0.0075,-0.0123,-0.013,-0.0057,-0.0057,-0.0057,-0.0057,0,0.0175,0.0186,0.0194,0.0199,0.02,0.0211,0.0196,0.0189,0.0169,0.0149,0.0125,0.0073,0.0042,0.0027,0.0002,-0.0019,-0.0043,-0.0063,-0.0082,-0.0072,-0.0123,-0.0131,-0.0053,-0.0054,-0.0054,-0.0055,0,0,0.0193,0.0212,0.0216,0.0235,0.0232,0.024,0.0247,0.0244,0.0252,0.0207,0.0206,0.0155,0.012,0.01,0.006,0.0017,-0.003,-0.0022,-0.0026,-0.0064,-0.0138,-0.0133,-0.0142,-0.0056,-0.0057,-0.0058,-0.0169,0,0.0224,0.0266,0.0263,0.0304,0.0326,0.0311,0.0324,0.0316,0.0295,0.0281,0.0223,0.0204,0.0151,0.0138,0.0086,0.0004,-0.0048,0.0002,-0.0146,-0.015,-0.0144,-0.015,-0.0061,-0.0175,-0.0177,-0.0178,-0.0179,0,0.0253,0.0281,0.0329,0.0368,0.0377,0.0395,0.0414,0.0422,0.0395,0.0377,0.0337,0.0288,0.0227,0.0177,0.0035,0.0069,-0.0028,-0.0102,-0.0108,-0.0128,-0.016,-0.0189,-0.0194,-0.0193,-0.0192,-0.0191,-0.019,0,0.0281,0.0327,0.0371,0.0383,0.0418,0.0439,0.0457,0.045,0.0473,0.0437,0.044,0.0349,0.0313,0.0182,0.0034,0.0031,-0.0131,-0.0156,-0.0249,-0.025,-0.0246,-0.0245,-0.0267,-0.0267,-0.0267,-0.0267,-0.0266,0,0.0312,0.0349,0.0391,0.0417,0.0478,0.0485,0.0537,0.0538,0.0549,0.0582,0.0495,0.0492,0.0312,0.0202,0.0053,-0.0115,-0.0121,-0.0244,-0.0278,-0.022,-0.0214,-0.0253,-0.0249,-0.0271,-0.027,-0.0269,-0.0268,0,0.0331,0.0357,0.0417,0.0471,0.0494,0.0538,0.0607,0.0645,0.0644,0.0683,0.068,0.0594,0.0454,0.0266,0.005,-0.0076,-0.0246,-0.031,-0.0229,-0.0256,-0.0342,-0.0335,-0.0424,-0.0424,-0.0425,-0.0425,-0.0426,0,0.0343,0.0376,0.0459,0.0506,0.0535,0.0602,0.0655,0.0688,0.0735,0.0751,0.0775,0.0664,0.0578,0.0289,0.0075,-0.0215,-0.026,-0.036,-0.036,-0.0334,-0.0358,-0.035,-0.0342,-0.0427,-0.0427,-0.0427,-0.0427,0,0.037,0.04,0.0453,0.0551,0.062,0.0702,0.0779,0.0822,0.0865,0.0868,0.086,0.0715,0.0554,0.0313,0.0085,-0.0124,-0.03,-0.0368,-0.0368,-0.0369,-0.034,-0.0361,-0.0352,-0.043,-0.0429,-0.0429,-0.0429,0,0.0391,0.0431,0.0506,0.0592,0.0686,0.0778,0.0815,0.0876,0.0923,0.0941,0.0935,0.0766,0.0664,0.036,0.0154,-0.0054,-0.0115,-0.0196,-0.0206,-0.0207,-0.0114,-0.0043,-0.007,0,0,0,0,0,0.041,0.0459,0.0542,0.0641,0.0737,0.0794,0.0893,0.0923,0.0963,0.0974,0.0962,0.0819,0.053,0.0406,0.02,0.0113,-0.0173,-0.0139,-0.0276,-0.0442,-0.0439,-0.0368,0,0,0,0,0,0,0.0423,0.0498,0.0541,0.0668,0.0739,0.085,0.0916,0.0946,0.0952,0.0963,0.082,0.0754,0.0473,0.0652,0.0193,0.013,0.001,-0.0272,-0.0277,-0.0443,-0.0441,-0.0439,-0.0364,0,0,0,0,0]}]]